This is the latest recevied weather packets stored in our database for station/object N1YZ. If no packets are shown the sender has not sent any weather packets the latest 10 day(s).
| Time | Temp. | Humidity | Pressure | Rain* | Wind** | Luminosity | Snow |
|---|---|---|---|---|---|---|---|
| 1777860747 | 14.44° C | 70% | 1037.6 hPa | 0 mm | - | 0 W/m² | - |
| 1777860444 | 14.44° C | 72% | 1037.7 hPa | 0 mm | - | 0 W/m² | - |
| 1777860140 | 14.44° C | 68% | 1037.9 hPa | 0 mm | - | 0 W/m² | - |
| 1777859837 | 14.44° C | 70% | 1037.7 hPa | 0 mm | - | 0 W/m² | - |
| 1777859533 | 15° C | 68% | 1037.8 hPa | 0 mm | - | 0 W/m² | - |
| 1777859229 | 15° C | 67% | 1037.6 hPa | 0 mm | - | 0 W/m² | - |
| 1777858926 | 15° C | 66% | 1037.7 hPa | 0 mm | - | 0 W/m² | - |
| 1777858624 | 15° C | 65% | 1037.8 hPa | 0 mm | - | 0 W/m² | - |
| 1777858321 | 15° C | 65% | 1037.6 hPa | 0 mm | - | 0 W/m² | - |
| 1777858017 | 15° C | 66% | 1037.5 hPa | 0 mm | - | 0 W/m² | - |
| 1777857715 | 15.56° C | 68% | 1037.2 hPa | 0 mm | - | 0 W/m² | - |
| 1777857412 | 15.56° C | 64% | 1037.5 hPa | 0 mm | - | 0 W/m² | - |
| 1777857108 | 16.11° C | 61% | 1037.3 hPa | 0 mm | - | 0 W/m² | - |
| 1777856804 | 16.11° C | 59% | 1037.2 hPa | 0 mm | - | 0 W/m² | - |
| 1777856500 | 16.11° C | 60% | 1037.3 hPa | 0 mm | - | 0 W/m² | - |
| 1777856197 | 16.11° C | 60% | 1037.2 hPa | 0 mm | - | 0 W/m² | - |
| 1777855894 | 16.67° C | 60% | 1037.3 hPa | 0 mm | - | 0 W/m² | - |
| 1777855592 | 16.67° C | 57% | 1037.1 hPa | 0 mm | - | 0 W/m² | - |
| 1777855289 | 16.67° C | 59% | 1037.3 hPa | 0 mm | - | 0 W/m² | - |
| 1777854985 | 17.22° C | 58% | 1037.2 hPa | 0 mm | - | 1 W/m² | - |
| 1777854682 | 17.22° C | 57% | 1037.2 hPa | 0 mm | - | 1 W/m² | - |
| 1777854379 | 17.78° C | 54% | 1037.1 hPa | 0 mm | - | 2 W/m² | - |
| 1777854076 | 17.78° C | 54% | 1037.1 hPa | 0 mm | - | 3 W/m² | - |
| 1777853774 | 17.78° C | 52% | 1037.1 hPa | 0 mm | - | 4 W/m² | - |
| 1777853469 | 18.33° C | 51% | 1037.1 hPa | 0 mm | - | 6 W/m² | - |
* Rain latest hour (hover to see other rain measurements)
** Current wind speed in m/s (hover to see current wind gust speed)